User: anonymous   Login
Location: Auckland
(36.8670°S, 174.7670°E)
Time: 21:02:46
(UTC+12:00)
Language:

A-11 Canister half - Orbit

View from above orbital plane
View from above orbital plane
View from above satellite
View from above satellite

Ground track
Ground track

The orbit data is extracted from the following two-line orbital elements,

1    53U 60009E   19228.85564998 -.00000058 +00000-0 +25956-3 0  9993
2    53 047.2763 121.3858 0098051 259.0963 099.8780 12.17228946631344
Epoch (UTC): 16 August 2019 20:32:08
Eccentricity: 0.0098051
inclination: 47.2763°
perigee height: 1526 km
apogee height: 1683 km
right ascension of ascending node: 121.3858°
argument of perigee: 259.0963°
revolutions per day: 12.17228946
mean anomaly at epoch: 99.8780°
orbit number at epoch: 63134

The dashed part of the orbit path shows where the satellite is in the earth's shadow,  

DLR